Date String (YYYY-MM-DD hh:mm:ss) UTC,Instrument flags,absolute air pressure of the measurement (hPa),sample flow rate (lpm),inlet stack bypass flow (lpm),air temperature of the measurement (°C),ambient temperature measured by the external sensor (°C),aerosol sample conditioner tube jacket temperature (°C),OPC LED temperature (°C),internal box temperature (°C),relative humidity of the measurement (%),span deviation,mass concentration of particles derived from Lorenz-Mie calculation of OPC scattering (μg/m³),mass concentration of particles derived from Lorenz-Mie calculation of OPC scattering (μg/m³),mass concentration of particles derived from Lorenz-Mie calculation of OPC scattering (μg/m³)
DateTimeUTC,F1_M11,P_M11,Q1_M11,Q2_M11,T1_M11,T2_M11,T3_M11,T4_M11,T5_M11,U1_M11,ZSPAN_M11,X0_M11,X2_M11,X1_M11
2023-07-28 03:00:00,SystemResetWarning,0834.7,5.01,000.00,028.8,025.4,000.0,037.0,030.2,28.7,0000.0,0017.45,0005.54,0003.72
2023-07-28 03:01:00,SystemResetWarning,0834.7,5.01,000.00,028.7,025.7,000.0,037.1,030.2,28.5,0000.0,0016.16,0005.53,0003.73
2023-07-28 03:02:00,SystemResetWarning,0835.0,5.00,000.00,028.7,026.1,000.0,037.1,030.2,28.4,0000.0,0014.82,0005.54,0003.76
2023-07-28 03:03:00,SystemResetWarning,0834.6,5.00,000.00,028.8,026.5,000.0,037.1,030.3,28.4,0000.0,0014.87,0005.53,0003.77
2023-07-28 03:04:00,SystemResetWarning,0834.8,5.00,000.00,028.8,026.9,000.0,037.1,030.4,28.2,0000.0,0015.12,0005.57,0003.76
2023-07-28 03:05:00,SystemResetWarning,0834.9,5.00,000.00,028.8,027.2,000.0,037.2,030.5,28.1,0000.0,0016.39,0005.62,0003.77
2023-07-28 03:06:00,SystemResetWarning,0835.3,5.00,000.00,028.9,027.4,000.0,037.2,030.6,27.9,0000.0,0017.97,0005.64,0003.78
2023-07-28 03:07:00,SystemResetWarning,0834.8,4.99,000.00,028.9,027.7,000.0,037.2,030.7,28.0,0000.0,0018.24,0005.71,0003.79
2023-07-28 03:08:00,SystemResetWarning,0835.0,4.99,000.00,029.0,027.4,000.0,037.2,030.7,27.9,0000.0,0018.00,0005.73,0003.79
2023-07-28 03:09:00,SystemResetWarning,0835.0,5.02,000.00,028.9,025.7,000.0,037.1,030.5,27.9,0000.0,0017.92,0005.70,0003.78
2023-07-28 03:10:00,SystemResetWarning,0835.0,5.02,000.00,028.9,025.3,000.0,037.0,030.3,28.0,0000.0,0017.42,0005.62,0003.77
2023-07-28 03:11:00,SystemResetWarning,0835.1,4.99,000.00,028.8,025.5,000.0,037.1,030.2,28.2,0000.0,0016.96,0005.58,0003.76
2023-07-28 03:12:00,SystemResetWarning,0835.1,4.99,000.00,028.8,025.9,000.0,037.1,030.2,28.3,0000.0,0017.40,0005.53,0003.75
2023-07-28 03:13:00,SystemResetWarning,0835.2,5.00,000.00,028.8,026.3,000.0,037.1,030.3,28.4,0000.0,0018.02,0005.54,0003.75
2023-07-28 03:14:00,SystemResetWarning,0835.2,5.01,000.00,028.8,026.7,000.0,037.2,030.4,28.6,0000.0,0017.54,0005.51,0003.74
2023-07-28 03:15:00,SystemResetWarning,0835.2,5.01,000.00,028.8,027.0,000.0,037.2,030.5,28.6,0000.0,0017.03,0005.48,0003.75
2023-07-28 03:16:00,SystemResetWarning,0835.2,4.99,000.00,028.9,027.3,000.0,037.2,030.6,28.6,0000.0,0016.79,0005.44,0003.74
2023-07-28 03:17:00,SystemResetWarning,0835.3,4.99,000.00,028.9,027.5,000.0,037.3,030.7,28.5,0000.0,0015.50,0005.42,0003.72
2023-07-28 03:18:00,SystemResetWarning,0835.3,5.01,000.00,029.0,027.7,000.0,037.3,030.7,28.5,0000.0,0015.33,0005.38,0003.70
2023-07-28 03:19:00,SystemResetWarning,0835.3,4.99,000.00,029.0,026.9,000.0,037.2,030.7,28.5,0000.0,0015.17,0005.29,0003.68
2023-07-28 03:20:00,SystemResetWarning,0835.4,5.00,000.00,028.9,025.5,000.0,037.1,030.4,28.6,0000.0,0015.50,0005.24,0003.67
2023-07-28 03:21:00,SystemResetWarning,0835.5,5.01,000.00,028.9,025.3,000.0,037.1,030.2,28.8,0000.0,0015.37,0005.20,0003.66
2023-07-28 03:22:00,SystemResetWarning,0835.5,5.00,000.00,028.8,025.6,000.0,037.1,030.2,29.0,0000.0,0015.20,0005.10,0003.63
2023-07-28 03:23:00,SystemResetWarning,0835.6,5.00,000.00,028.8,026.0,000.0,037.2,030.3,28.9,0000.0,0015.28,0005.01,0003.62
2023-07-28 03:24:00,SystemResetWarning,0835.6,5.00,000.00,028.8,026.4,000.0,037.2,030.3,28.9,0000.0,0014.70,0004.92,0003.60
2023-07-28 03:25:00,SystemResetWarning,0835.7,5.00,000.00,028.8,026.8,000.0,037.2,030.4,28.7,0000.0,0015.10,0004.89,0003.58
2023-07-28 03:26:00,SystemResetWarning,0835.8,5.00,000.00,028.9,027.1,000.0,037.2,030.5,28.7,0000.0,0016.00,0004.84,0003.56
2023-07-28 03:27:00,SystemResetWarning,0835.9,5.00,000.00,028.9,027.4,000.0,037.3,030.6,28.6,0000.0,0015.85,0004.82,0003.56
2023-07-28 03:28:00,SystemResetWarning,0835.9,5.00,000.00,028.9,027.6,000.0,037.3,030.7,28.7,0000.0,0016.89,0004.80,0003.56
2023-07-28 03:29:00,SystemResetWarning,0836.0,4.98,000.00,029.0,027.0,000.0,037.2,030.7,28.5,0000.0,0016.95,0004.74,0003.56
2023-07-28 03:30:00,SystemResetWarning,0835.9,5.00,000.00,028.9,025.6,000.0,037.1,030.5,28.5,0000.0,0016.85,0004.73,0003.56
2023-07-28 03:31:00,SystemResetWarning,0835.9,5.01,000.00,028.9,025.3,000.0,037.1,030.3,28.7,0000.0,0016.48,0004.74,0003.56
2023-07-28 03:32:00,SystemResetWarning,0835.9,5.00,000.00,028.8,025.6,000.0,037.1,030.2,28.8,0000.0,0016.55,0004.78,0003.56
2023-07-28 03:33:00,SystemResetWarning,0836.0,5.00,000.00,028.8,026.0,000.0,037.1,030.3,28.6,0000.0,0016.80,0004.84,0003.57
2023-07-28 03:34:00,SystemResetWarning,0836.0,5.01,000.00,028.8,026.4,000.0,037.2,030.4,28.7,0000.0,0016.88,0004.84,0003.56
2023-07-28 03:35:00,SystemResetWarning,0836.0,5.00,000.00,028.8,026.8,000.0,037.2,030.4,28.3,0000.0,0016.63,0004.89,0003.57
2023-07-28 03:36:00,SystemResetWarning,0836.1,5.00,000.00,028.9,027.1,000.0,037.2,030.5,28.3,0000.0,0016.07,0004.92,0003.58
2023-07-28 03:37:00,SystemResetWarning,0836.1,4.99,000.00,028.9,027.3,000.0,037.3,030.6,28.1,0000.0,0015.15,0004.92,0003.58
2023-07-28 03:38:00,SystemResetWarning,0836.1,4.99,000.00,028.9,027.6,000.0,037.3,030.7,27.9,0000.0,0015.31,0004.90,0003.58
2023-07-28 03:39:00,SystemResetWarning,0836.1,5.01,000.00,029.0,027.7,000.0,037.3,030.7,27.6,0000.0,0013.63,0004.86,0003.57
2023-07-28 03:40:00,SystemResetWarning,0836.1,4.99,000.00,029.0,026.5,000.0,037.2,030.6,27.6,0000.0,0013.32,0004.86,0003.57
2023-07-28 03:41:00,SystemResetWarning,0836.1,5.01,000.00,028.9,025.4,000.0,037.1,030.4,27.7,0000.0,0013.58,0004.85,0003.56
2023-07-28 03:42:00,SystemResetWarning,0836.1,5.01,000.00,028.9,025.5,000.0,037.1,030.3,27.7,0000.0,0013.74,0004.86,0003.56
2023-07-28 03:43:00,SystemResetWarning,0836.0,5.00,000.00,028.8,025.8,000.0,037.1,030.2,27.7,0000.0,0013.67,0004.85,0003.57
2023-07-28 03:44:00,SystemResetWarning,0835.9,5.00,000.00,028.8,026.2,000.0,037.2,030.3,27.7,0000.0,0013.01,0004.81,0003.57
2023-07-28 03:45:00,SystemResetWarning,0835.9,5.01,000.00,028.8,026.6,000.0,037.2,030.4,27.7,0000.0,0012.15,0004.86,0003.57
2023-07-28 03:46:00,SystemResetWarning,0835.9,5.00,000.00,028.9,026.9,000.0,037.2,030.5,27.5,0000.0,0012.19,0004.77,0003.56
2023-07-28 03:47:00,SystemResetWarning,0835.8,5.00,000.00,028.9,027.2,000.0,037.3,030.6,27.6,0000.0,0012.87,0004.75,0003.56
2023-07-28 03:48:00,SystemResetWarning,0835.7,5.00,000.00,028.9,027.5,000.0,037.3,030.6,27.6,0000.0,0012.76,0004.77,0003.56
2023-07-28 03:49:00,SystemResetWarning,0835.6,5.00,000.00,029.0,027.7,000.0,037.3,030.7,27.5,0000.0,0011.72,0004.80,0003.57
2023-07-28 03:50:00,SystemResetWarning,0835.5,4.99,000.00,029.0,027.8,000.0,037.3,030.8,27.7,0000.0,0011.67,0004.80,0003.57
2023-07-28 03:51:00,SystemResetWarning,0835.2,4.98,000.00,029.0,026.9,000.0,037.3,030.6,27.7,0000.0,0012.44,0004.81,0003.57
2023-07-28 03:52:00,SystemResetWarning,0834.9,5.01,000.00,029.0,025.5,000.0,037.2,030.4,28.3,0000.0,0012.94,0004.81,0003.57
2023-07-28 03:53:00,SystemResetWarning,0835.0,5.01,000.00,028.9,025.3,000.0,037.1,030.3,28.9,0000.0,0013.55,0004.84,0003.58
2023-07-28 03:54:00,SystemResetWarning,0835.3,5.01,000.00,028.8,025.6,000.0,037.2,030.2,29.3,0000.0,0013.55,0004.85,0003.58
2023-07-28 03:55:00,SystemResetWarning,0835.5,5.00,000.00,028.8,026.0,000.0,037.2,030.3,29.7,0000.0,0013.64,0004.86,0003.59
2023-07-28 03:56:00,SystemResetWarning,0835.6,5.00,000.00,028.8,026.4,000.0,037.2,030.4,29.9,0000.0,0014.42,0004.88,0003.60
2023-07-28 03:57:00,SystemResetWarning,0835.8,4.99,000.00,028.9,026.8,000.0,037.3,030.5,30.3,0000.0,0014.82,0004.94,0003.62
2023-07-28 03:58:00,SystemResetWarning,0835.9,5.00,000.00,028.9,027.1,000.0,037.3,030.6,30.7,0000.0,0014.70,0004.94,0003.62
2023-07-28 03:59:00,SystemResetWarning,0835.9,5.00,000.00,028.9,027.4,000.0,037.3,030.6,30.1,0000.0,0014.07,0004.89,0003.63
